Theta_e
313 315 315 314 314 315 316 316 315 313 312 313 313 314 314 314 314 313 314 315 314 314 315 315 315 314 314 315 315 314 313 318 326 333 336 339 340 340 342 343 344 344 344 344 343 342 339 336 333 332 333 334 332 332 334 335 335 334 332 332 332 331 329 328 328 329 329 327 325 325 326 327 328 327 325 324 324 324 324 326 327 326 326 326 326 327
313 315 314 313 315 317 319 320 320 317 315 314 313 313 313 313 313 314 314 315 315 314 317 316 314 314 314 315 315 314 314 316 323 331 334 338 340 340 342 343 344 344 342 342 340 337 334 332 333 333 333 333 330 330 333 334 335 335 333 332 331 329 328 327 327 328 327 324 322 324 325 326 327 325 324 323 323 324 324 325 326 326 326 326 327 327
313 314 313 313 315 317 319 319 320 318 317 315 314 313 314 314 314 314 315 318 317 316 319 317 314 314 314 315 315 315 315 314 322 332 334 336 339 339 341 343 343 341 339 338 336 335 334 333 335 333 331 332 332 333 334 334 334 334 333 333 331 329 327 327 327 327 326 323 323 325 326 326 326 326 326 325 326 326 326 325 325 324 324 326 327 327
314 314 312 312 314 316 317 318 318 317 318 317 315 314 314 314 314 314 316 319 319 318 320 318 315 315 314 314 315 314 313 313 321 331 334 335 337 338 340 342 342 340 337 335 334 335 335 335 335 332 332 333 332 334 335 334 333 334 334 332 331 328 327 328 326 325 325 325 325 326 325 326 326 327 329 328 328 328 326 324 322 321 322 324 325 325
313 312 312 312 313 315 316 316 317 317 316 317 317 316 314 314 314 315 318 321 323 320 321 319 313 314 319 317 315 316 314 317 324 330 334 335 336 337 340 341 341 339 336 335 336 337 335 335 335 334 333 331 328 329 332 333 333 334 334 332 330 328 328 326 323 323 325 325 326 326 327 328 328 328 330 330 330 328 323 319 319 321 323 324 324 324
312 312 312 313 313 313 313 315 316 317 317 316 319 319 315 315 315 317 320 320 320 319 321 320 311 316 330 323 314 318 318 320 327 333 334 334 337 338 339 340 338 336 336 337 338 337 336 335 335 334 332 329 327 327 329 331 332 333 333 331 330 329 327 324 321 324 325 325 326 325 325 327 327 329 330 327 325 322 317 315 317 318 320 322 323 322
312 312 312 313 314 312 312 313 313 316 317 316 324 326 319 316 315 319 320 317 318 319 322 321 315 321 331 328 323 323 320 320 326 333 334 333 336 337 337 338 336 335 336 338 337 335 335 335 334 332 330 328 327 327 328 330 331 331 332 331 330 329 326 325 323 324 324 324 325 323 322 323 324 327 325 319 316 315 313 314 314 314 317 320 322 323
313 313 313 314 314 313 313 312 312 316 316 319 328 328 320 318 317 319 319 316 320 321 319 321 322 322 323 330 331 324 321 323 327 332 334 333 335 335 335 335 335 336 337 338 336 333 333 334 332 331 330 328 327 327 329 331 331 331 331 330 330 328 326 325 324 324 323 323 325 325 324 324 324 322 317 313 314 314 312 313 313 313 315 318 321 323
316 315 314 314 313 313 313 312 314 315 315 322 329 324 320 319 318 318 317 317 319 319 318 323 324 320 324 337 333 323 322 323 329 335 336 334 333 333 333 333 335 336 338 339 335 332 333 332 331 329 329 329 328 328 329 329 330 331 330 329 329 327 324 323 324 323 321 323 326 326 324 323 323 318 312 313 315 314 313 313 313 313 313 315 318 321
316 314 313 313 313 314 314 313 314 314 316 324 325 320 319 317 317 317 315 317 318 316 317 325 324 317 327 342 333 325 326 320 327 336 335 334 333 331 332 333 335 337 338 337 333 332 333 331 330 328 328 328 328 329 329 327 329 329 328 328 329 326 323 322 323 321 321 324 327 324 320 319 318 315 313 315 316 315 314 312 312 313 314 315 318 319
313 313 314 313 313 314 315 315 314 314 317 321 320 317 316 317 318 316 318 319 318 319 324 329 328 317 322 337 333 326 326 323 331 337 334 333 332 331 332 333 336 337 336 335 333 332 332 331 330 328 327 327 327 329 328 325 327 328 327 327 328 326 324 322 322 322 322 324 325 322 317 316 314 314 314 315 315 315 314 313 313 316 318 320 322 321
314 312 314 314 315 314 315 316 315 315 316 316 318 317 315 322 323 318 319 318 315 324 332 332 327 318 320 332 332 330 330 328 332 336 334 332 332 331 331 332 334 336 334 334 333 332 332 331 330 328 327 327 328 329 328 326 328 329 328 328 327 325 325 324 323 325 325 325 326 322 316 315 314 314 314 313 313 314 314 315 316 320 322 323 323 322
318 316 314 314 316 316 316 318 317 316 316 313 317 317 315 319 322 322 324 321 319 326 332 330 323 319 325 329 327 330 332 329 330 333 332 332 331 331 331 331 332 333 332 331 332 332 332 331 329 328 327 327 329 328 326 327 329 330 330 329 327 324 324 325 325 327 326 325 326 321 318 318 316 314 313 312 312 312 313 315 317 320 322 321 321 320
317 319 317 313 315 316 316 319 317 319 320 314 315 317 317 318 318 322 326 322 319 321 324 328 320 319 329 330 326 328 330 329 330 331 332 331 331 331 330 331 331 331 330 329 330 331 331 330 329 329 328 326 328 328 326 325 327 329 330 329 326 324 324 325 327 327 325 324 324 322 323 324 320 315 313 311 310 311 313 315 317 319 320 321 320 319
317 319 322 317 315 316 316 318 318 322 322 317 317 316 318 325 324 322 325 321 320 322 323 324 317 320 330 328 325 327 327 329 330 331 332 331 331 331 330 330 331 331 330 329 330 331 330 330 329 328 326 325 327 328 326 325 326 327 327 327 325 323 324 325 328 328 325 323 322 323 326 327 324 320 315 311 309 311 314 316 317 319 320 321 321 319
314 318 325 319 314 315 316 317 315 317 319 318 319 315 314 324 327 324 326 326 326 326 321 320 321 324 328 325 324 326 327 329 330 330 331 331 331 331 330 330 330 330 329 329 329 329 330 330 328 325 324 324 326 326 325 325 327 327 326 326 325 324 325 326 327 328 324 322 322 324 326 327 326 323 316 311 309 312 316 316 317 319 320 322 321 321
312 320 326 317 315 316 314 317 315 313 320 322 318 315 317 321 324 325 324 323 325 324 320 324 327 327 327 325 324 326 328 330 330 330 330 330 330 330 329 330 329 329 329 328 328 328 329 329 328 326 325 325 325 325 325 325 327 328 327 326 325 324 325 325 326 326 322 319 321 324 325 326 325 322 316 312 311 314 316 316 318 321 322 323 321 321
315 317 322 316 314 317 313 314 316 313 320 323 316 315 318 317 321 330 329 323 323 322 324 328 329 328 330 328 324 327 330 331 331 329 328 328 329 330 330 330 329 329 329 328 328 328 328 329 329 328 327 326 325 325 324 324 326 328 327 326 324 323 324 324 325 323 320 320 323 325 325 326 325 323 319 314 312 315 317 317 319 322 322 323 321 322
317 315 324 322 313 318 316 312 315 316 315 315 316 318 319 319 324 328 324 323 324 322 322 328 329 328 328 327 327 330 329 330 332 329 327 328 329 330 330 330 330 329 330 329 329 328 328 329 330 329 328 327 327 326 325 325 328 329 329 328 326 324 323 323 323 322 321 322 324 325 326 327 327 325 321 315 314 317 318 317 319 321 322 322 322 322
317 315 324 329 317 317 323 319 318 320 319 316 317 320 324 330 332 326 321 325 329 328 325 327 331 329 325 324 328 330 327 328 331 329 329 329 328 330 330 330 330 330 330 330 329 329 329 329 330 330 330 329 328 327 326 327 330 331 331 329 326 325 323 323 323 322 322 324 325 326 327 327 327 325 321 316 316 318 318 317 318 321 322 321 321 318
320 317 321 329 322 318 328 326 317 318 320 318 317 319 321 326 325 322 322 323 327 334 331 327 327 327 327 325 326 329 327 326 327 328 329 329 328 329 328 329 330 329 330 329 329 330 329 328 329 330 331 331 330 329 328 327 329 330 328 326 325 325 324 324 323 321 322 324 325 327 328 328 327 325 321 319 318 319 318 317 318 320 320 319 318 311
323 324 324 328 323 320 327 325 316 317 318 318 320 320 320 322 322 321 322 322 327 336 333 329 329 328 328 327 325 327 326 324 325 325 326 326 327 327 327 328 329 329 329 329 329 330 328 327 328 328 329 330 330 330 330 329 329 328 327 326 326 327 326 324 324 323 322 323 324 327 328 327 327 325 323 322 321 319 317 316 317 317 317 315 311 307
325 327 324 325 323 320 321 318 316 317 317 319 320 319 322 327 326 326 327 325 327 329 326 329 333 327 324 325 324 324 324 323 324 324 324 324 324 325 325 326 327 327 327 327 328 328 325 325 328 328 328 329 329 330 330 330 330 329 328 328 327 327 325 325 324 324 323 323 325 327 327 326 326 326 324 324 323 320 316 317 317 314 312 310 307 307
325 326 325 328 330 326 321 317 318 318 318 321 321 320 323 325 323 325 329 328 329 327 327 331 332 325 323 324 323 322 322 322 323 324 323 322 321 322 323 325 326 325 325 326 327 326 324 325 327 326 326 327 328 329 330 329 329 329 329 328 327 326 325 324 325 325 325 325 327 327 326 325 325 324 323 324 324 320 317 318 317 313 310 308 307 311
322 324 326 329 327 323 319 319 323 323 320 320 321 321 321 323 325 324 323 328 329 325 325 330 329 325 324 324 322 322 323 322 323 323 322 322 322 322 323 324 325 325 325 326 326 325 324 325 325 325 325 326 326 327 328 328 327 327 327 327 327 327 326 326 326 326 325 325 326 327 325 324 324 324 323 322 322 320 318 319 318 313 309 308 310 313
323 326 330 331 327 324 324 325 328 328 323 320 321 322 321 324 327 324 324 331 329 323 325 329 329 327 325 324 324 323 323 323 323 322 323 323 322 321 320 321 323 324 324 324 324 324 325 325 325 325 326 326 326 326 327 327 326 325 326 326 327 326 326 326 326 325 324 323 325 327 326 325 324 324 323 321 320 320 319 319 319 314 310 310 313 315
327 328 329 330 331 330 329 325 323 323 324 322 321 322 323 325 325 325 331 333 327 327 328 326 326 329 326 325 325 322 322 323 321 322 322 320 316 314 314 316 318 321 322 322 323 324 324 324 324 325 325 325 325 325 326 327 326 325 325 324 324 324 325 325 325 324 324 324 324 325 325 325 324 323 323 322 321 320 320 319 318 315 312 313 314 315
330 327 324 324 325 324 324 322 321 320 320 319 321 323 325 328 329 329 330 325 322 329 331 324 325 329 327 325 325 322 322 322 321 322 320 315 311 310 311 312 314 316 318 319 319 319 319 319 321 322 323 323 324 325 325 326 326 325 324 324 322 323 324 325 324 323 323 324 323 323 323 324 323 323 323 322 321 321 321 320 318 315 315 316 315 315
327 322 319 320 321 320 321 322 323 323 319 317 321 325 326 329 331 329 325 320 321 329 331 325 325 327 326 324 322 321 322 321 321 321 316 311 309 309 309 309 310 310 312 313 314 314 314 315 316 318 320 321 323 323 323 324 325 324 324 324 323 323 323 324 323 321 321 322 322 322 323 324 324 323 323 323 322 321 321 321 319 317 318 318 316 316
322 319 317 321 323 321 320 321 321 321 319 317 318 320 322 325 327 324 322 321 321 325 326 325 325 326 325 323 321 320 320 320 321 319 312 309 308 308 307 307 306 306 307 309 310 311 312 312 314 316 318 319 321 321 322 323 323 323 323 323 323 322 322 323 322 320 320 320 321 323 324 324 324 323 323 324 323 322 320 319 319 319 318 318 318 317
320 319 317 320 324 320 318 320 320 318 318 317 316 316 318 322 323 323 322 322 323 324 324 323 325 324 321 319 317 316 315 316 316 313 310 308 308 307 306 306 305 304 304 305 307 308 310 311 312 314 315 315 316 318 320 321 322 322 322 322 322 322 322 322 322 321 321 322 323 324 324 324 323 323 323 322 322 322 321 319 319 320 319 319 319 318
322 321 318 321 324 320 316 319 320 318 317 319 317 315 316 319 321 322 323 323 324 324 323 323 324 321 316 312 311 310 309 309 309 308 308 307 306 306 305 304 304 304 303 304 305 307 308 308 309 311 311 312 313 315 317 319 320 321 322 321 321 321 322 322 322 322 322 323 323 323 323 323 323 323 323 322 322 322 321 319 319 320 321 321 321 320
323 323 321 322 323 319 316 318 319 317 318 321 317 313 312 316 320 322 322 320 320 321 322 323 321 316 313 311 309 307 307 307 306 306 306 306 305 304 304 304 304 305 305 305 306 307 307 307 307 308 308 309 311 312 313 315 316 317 316 316 315 316 318 318 319 320 321 321 320 320 320 321 321 321 320 320 321 321 321 321 321 321 321 321 322 322
320 321 322 322 322 319 317 318 318 318 318 319 315 310 309 313 318 319 317 316 317 318 317 317 314 312 310 310 308 307 305 305 305 305 304 305 304 304 304 304 306 307 307 307 307 306 306 306 306 307 307 307 307 308 310 311 311 311 311 311 310 312 313 313 314 315 316 316 315 314 315 316 318 318 318 318 319 321 321 322 322 321 320 320 320 321
320 321 321 320 320 319 318 318 320 320 317 316 313 309 308 311 314 315 313 312 313 315 314 311 310 310 309 307 306 305 304 304 304 304 303 303 304 304 304 304 305 307 308 309 309 308 307 307 307 306 307 307 307 308 310 310 310 310 310 310 310 311 311 312 312 312 312 312 312 311 312 313 314 315 315 315 317 318 320 320 321 321 321 320 320 320
321 321 320 319 318 318 318 320 320 317 314 314 313 310 309 310 312 314 316 312 310 313 313 308 306 307 306 305 305 304 303 303 303 303 303 303 303 303 304 304 304 305 306 307 308 308 308 309 308 308 308 308 309 310 310 310 311 311 312 311 312 312 312 312 312 312 312 312 312 312 313 312 313 313 313 313 314 315 316 317 318 319 320 320 320 320
320 322 321 319 317 317 319 318 316 315 314 313 313 311 308 308 309 312 316 312 309 311 310 305 304 304 304 304 304 303 303 303 303 302 302 304 304 304 304 304 305 305 305 305 306 307 307 307 308 308 309 309 309 310 310 310 310 310 311 311 311 312 312 313 312 311 310 311 311 312 313 313 312 312 313 314 314 314 314 314 315 316 317 317 318 318
316 320 323 321 317 318 320 317 315 317 315 313 313 311 308 307 307 309 313 314 310 308 307 305 304 304 303 304 303 303 304 305 303 302 301 303 304 304 304 304 303 304 304 304 305 305 305 305 306 307 307 307 308 308 309 309 309 309 309 309 309 310 310 311 310 309 308 308 308 308 309 309 309 309 310 311 312 313 314 314 314 314 314 315 315 316
312 315 321 322 318 318 320 318 316 316 314 312 311 309 307 307 308 309 314 315 310 306 306 305 304 304 304 304 303 304 306 306 304 302 301 301 302 302 302 302 302 303 303 303 304 303 303 303 304 305 306 307 307 306 307 308 308 308 309 309 308 308 309 309 308 307 307 307 306 305 305 305 305 305 305 305 306 307 309 311 311 312 312 312 313 314
313 314 317 319 317 316 316 314 313 314 312 309 308 307 306 306 308 312 317 316 309 305 305 305 304 304 305 304 304 305 306 305 303 302 300 299 300 300 300 300 301 301 302 302 302 302 301 301 301 302 304 305 303 303 304 305 306 306 306 305 305 304 304 303 303 303 303 303 303 302 302 302 301 300 300 300 301 301 302 304 305 306 307 308 309 310
314 314 315 315 315 314 314 313 312 312 310 307 306 306 305 307 311 314 315 312 307 306 306 306 306 306 305 305 305 304 304 303 302 301 301 300 300 300 299 299 299 300 300 300 300 300 300 300 299 300 301 301 300 301 302 302 301 301 300 300 300 300 300 299 299 300 300 300 300 300 300 300 299 299 299 299 299 299 299 300 300 301 302 303 303 303
313 314 314 313 313 313 312 312 311 310 308 305 305 305 306 311 315 312 308 307 307 307 306 306 307 306 305 304 304 303 303 302 302 302 302 301 300 300 299 299 299 299 300 300 300 300 300 300 299 298 298 298 298 299 299 299 299 298 298 298 298 299 299 299 299 299 300 300 299 299 299 299 299 299 299 299 299 299 299 299 299 299 299 299 299 299
310 313 314 312 311 312 312 311 311 311 306 304 306 308 307 310 311 306 303 304 306 305 305 305 305 305 305 303 303 303 303 303 302 302 301 300 300 300 300 299 298 299 299 299 300 300 300 300 299 298 297 297 297 297 298 298 298 298 298 299 299 299 299 299 299 299 299 299 299 299 299 299 299 299 299 299 298 298 298 299 299 299 299 299 298 298
310 312 313 311 309 311 311 309 308 307 304 303 306 308 305 304 305 304 303 303 303 303 303 303 303 303 303 303 302 302 302 301 301 301 301 301 301 300 300 299 299 299 299 299 298 299 299 299 298 298 298 299 299 300 299 300 300 299 299 299 300 300 300 300 299 299 299 299 299 299 299 299 299 298 298 298 298 298 298 298 298 298 298 298 299 299
308 309 310 308 306 307 308 306 304 304 303 302 303 303 302 303 304 304 304 303 302 303 303 302 302 302 302 302 302 301 301 301 301 301 301 301 300 300 300 300 300 300 299 299 298 298 299 299 299 299 300 300 301 301 301 301 300 300 300 300 300 300 300 300 300 300 300 300 299 299 299 298 298 298 298 298 298 298 298 298 298 298 298 298 299 299
305 306 306 307 305 305 305 304 303 303 303 302 303 303 303 304 303 303 303 302 302 302 302 302 302 302 302 302 302 302 302 301 301 301 301 301 301 301 300 300 300 300 299 299 298 298 299 300 300 300 300 300 300 300 300 300 300 300 300 300 300 300 300 300 300 299 299 299 298 298 298 298 298 298 298 298 298 298 298 298 298 298 297 298 298 298
306 306 306 307 307 306 306 304 302 303 302 302 303 304 304 304 304 303 303 302 302 302 302 302 302 302 302 302 302 301 301 301 301 301 300 300 301 301 300 300 300 299 299 298 297 297 300 301 300 300 300 300 300 300 300 300 300 300 300 300 299 299 299 299 299 298 298 298 298 298 298 298 298 298 298 298 298 298 298 298 297 297 297 297 297 298
306 306 307 308 308 307 306 303 302 302 302 303 304 303 303 304 304 304 304 303 303 303 302 302 302 302 301 301 301 301 301 301 301 301 300 300 300 300 301 301 300 300 299 298 296 297 300 300 300 300 300 300 300 300 300 299 299 299 299 299 299 299 298 297 297 297 297 298 298 298 299 298 298 298 298 298 298 297 297 297 296 296 296 296 296 297
305 306 306 307 306 305 304 302 302 302 302 302 303 303 302 302 302 303 303 303 303 303 302 302 302 301 301 301 301 300 300 300 300 300 300 300 300 300 300 300 300 300 299 297 297 298 300 300 299 299 299 299 299 299 299 299 299 299 299 298 298 297 297 297 297 298 298 298 298 298 298 297 297 297 297 297 297 296 296 295 295 295 295 295 295 295
306 306 305 305 306 306 305 303 303 304 303 302 301 302 301 301 301 301 301 301 301 301 301 300 301 301 301 301 301 300 299 299 299 299 300 300 299 300 299 299 299 299 298 298 298 299 299 299 299 299 299 299 299 299 299 299 299 298 298 297 297 297 297 297 298 298 298 297 297 297 296 296 296 295 295 295 295 295 295 295 295 295 295 295 295 295
305 305 305 306 307 307 305 303 303 304 303 302 301 302 301 301 301 301 301 301 301 300 300 299 300 300 300 300 300 300 299 299 299 299 299 299 298 298 298 298 298 298 297 297 298 299 299 299 299 299 299 299 299 299 298 298 298 298 297 297 297 297 297 297 297 297 297 296 296 296 295 295 294 294 294 294 294 294 294 294 295 295 295 295 295 295
Wind_Speed
7 4 4 8 5 4 5 6 8 6 4 6 6 5 5 6 6 6 9 8 2 3 6 9 10 10 15 15 13 19 14 15 20 21 21 24 26 28 30 31 30 27 22 21 23 25 22 22 28 30 26 25 25 24 24 25 28 28 28 29 26 25 24 23 23 22 23 23 22 22 20 18 18 17 15 14 12 10 8 7 6 6 5 5 5 4
5 7 8 8 6 6 8 8 7 6 7 7 6 7 7 6 7 9 11 8 1 3 6 9 10 12 16 15 14 16 9 9 16 20 21 26 27 30 32 30 26 21 19 20 21 21 21 24 27 24 19 20 21 24 28 28 28 27 27 27 27 26 25 23 22 22 22 21 21 21 19 18 18 16 15 13 11 9 8 7 6 5 4 4 5 4
3 6 9 8 7 7 7 7 7 7 7 6 5 5 6 6 6 11 9 4 1 4 5 10 9 12 17 15 14 14 9 10 23 31 32 34 30 29 32 28 24 25 24 26 27 24 21 20 21 17 15 16 16 22 28 28 27 27 26 26 27 26 25 23 22 22 21 19 19 19 17 17 16 14 12 9 8 8 7 7 6 5 5 5 5 5
4 7 9 9 7 7 7 8 7 6 5 5 6 4 6 7 5 7 5 4 5 4 5 9 8 9 13 11 10 13 10 9 23 38 41 41 38 35 32 25 27 29 28 30 29 26 23 23 23 19 19 21 20 23 26 28 28 28 27 27 28 26 25 24 22 22 21 19 18 18 17 16 13 12 10 9 8 6 6 5 5 5 5 5 4 5
8 12 8 6 7 8 8 9 6 5 5 5 7 6 7 9 8 7 4 5 7 6 4 3 2 6 7 7 8 9 6 3 15 29 32 35 37 33 25 23 29 31 30 31 29 26 23 23 22 20 23 28 26 24 26 29 29 28 28 28 27 27 26 25 23 23 23 22 21 21 20 17 14 13 12 11 10 7 5 5 5 6 5 4 3 4
11 16 9 6 8 9 8 9 8 6 5 6 7 9 12 13 11 7 6 6 6 7 4 4 2 6 5 4 8 4 1 2 10 18 21 27 26 21 23 27 30 30 29 28 28 26 22 22 24 25 27 27 25 27 30 30 29 29 29 29 28 27 27 26 24 25 25 24 24 23 22 21 19 18 15 12 11 9 7 6 7 7 5 3 2 1
8 12 8 8 9 8 8 9 8 7 5 6 6 9 13 12 8 5 5 3 1 5 5 4 2 5 5 2 6 3 2 4 6 9 15 23 21 21 27 32 33 32 31 29 27 26 24 25 28 29 27 25 24 28 32 30 30 31 31 29 28 27 27 26 25 25 26 25 25 24 23 22 21 19 15 12 11 10 9 8 6 5 4 3 2 1
7 9 7 9 8 7 7 8 9 9 6 6 6 7 9 7 6 5 3 3 3 5 6 3 4 2 3 4 4 1 4 6 7 8 9 16 20 23 28 32 34 34 33 31 29 28 29 30 30 28 26 25 26 30 32 32 32 33 31 30 29 27 26 26 26 26 26 26 25 24 23 21 19 17 15 14 13 11 10 8 6 5 4 4 3 3
5 8 8 9 8 5 7 11 11 9 7 8 8 8 7 6 6 4 3 4 3 2 7 6 2 2 4 5 4 3 5 3 6 10 9 13 20 25 29 32 33 33 31 29 29 31 31 30 28 25 24 27 29 31 31 31 32 32 30 30 30 28 27 28 28 27 27 26 24 23 22 20 18 15 15 16 14 12 10 8 7 6 5 5 5 5
5 9 10 8 7 6 10 13 13 11 8 7 7 6 4 2 2 2 3 3 1 0 6 8 1 1 4 5 5 4 4 1 3 6 6 13 21 26 30 34 34 34 31 28 28 31 29 28 26 24 25 28 29 30 29 28 31 33 31 32 32 30 30 31 30 29 28 26 24 22 21 21 19 17 17 17 15 13 11 9 8 7 6 5 5 5
9 14 13 6 8 9 10 10 11 14 10 4 4 4 2 3 2 0 1 2 2 2 7 9 3 3 3 5 3 1 1 3 7 8 8 14 22 27 30 34 36 36 33 31 31 31 29 28 27 25 27 30 31 33 32 31 35 36 34 33 34 32 32 33 31 30 28 26 24 23 22 21 20 19 19 18 16 14 12 11 10 9 7 6 5 5
8 10 9 7 12 11 8 6 5 7 6 4 3 2 1 4 3 2 3 3 3 4 7 7 4 6 2 4 3 5 6 3 9 12 13 14 20 26 29 33 36 36 35 34 33 31 32 32 29 28 31 34 36 38 36 35 37 36 34 35 36 35 35 34 33 31 29 27 25 24 22 20 19 19 18 18 17 15 14 13 11 9 8 7 6 6
5 6 5 7 12 9 7 4 3 2 1 3 3 5 2 3 2 2 3 1 3 5 6 5 4 4 4 5 4 8 8 2 7 13 18 21 24 28 30 32 36 36 35 34 33 34 35 35 33 33 36 38 39 38 35 34 36 35 36 37 37 37 36 35 33 31 29 28 26 24 22 20 19 18 17 16 16 15 14 12 10 9 8 7 5 5
4 7 5 3 7 6 6 3 2 3 1 3 3 4 4 2 0 2 3 1 2 4 6 4 2 1 3 3 6 8 7 4 14 19 21 24 28 30 30 32 36 36 35 34 34 36 36 35 36 37 38 38 38 37 35 35 36 37 38 38 36 36 36 35 33 31 29 27 26 25 22 20 18 16 15 15 15 15 14 11 8 7 6 4 3 3
2 5 4 3 3 4 5 5 6 5 2 3 4 5 5 4 4 3 3 2 3 4 4 3 0 1 1 3 8 7 8 11 20 27 28 26 25 25 25 29 34 35 34 34 34 35 36 37 38 38 37 37 37 38 37 37 38 39 38 36 34 35 36 34 32 30 29 27 26 25 22 20 17 14 14 14 15 15 13 9 7 6 5 3 2 2
4 5 7 6 6 6 6 5 7 6 1 4 2 5 3 6 6 2 2 4 3 1 1 2 0 1 3 3 8 7 13 15 16 24 29 28 26 25 22 23 28 29 30 31 31 33 37 39 39 38 38 38 38 38 37 37 38 39 37 35 34 35 35 34 32 30 28 27 26 24 22 21 17 14 15 16 16 15 12 8 6 5 5 5 4 3
2 6 7 4 3 5 9 7 6 7 4 2 1 2 5 5 7 3 1 1 2 2 1 1 3 2 2 4 10 10 11 13 11 13 19 22 24 25 21 19 22 24 25 26 28 31 36 38 38 38 38 37 37 35 35 36 38 39 38 36 35 34 33 33 32 30 28 28 26 24 22 21 17 15 15 16 17 15 11 8 6 6 7 7 6 5
3 5 7 4 5 7 10 8 3 5 7 3 1 4 3 1 4 4 1 2 3 1 3 2 4 2 2 2 7 9 8 10 8 8 10 15 19 20 21 20 20 21 23 24 25 28 32 35 37 38 37 36 35 33 33 35 36 37 37 35 33 33 33 32 32 30 29 29 26 24 23 20 17 15 14 15 17 14 10 8 8 9 9 9 8 7
3 4 8 6 5 5 2 2 3 4 3 4 4 2 3 1 1 1 2 1 2 1 2 3 2 1 1 1 4 7 4 7 8 7 7 8 13 16 21 22 20 18 19 21 22 23 28 34 36 37 36 34 32 31 31 33 35 35 36 34 32 31 31 31 30 30 30 29 26 24 23 20 19 16 14 15 16 13 10 8 8 9 9 9 9 8
1 2 5 5 3 1 4 3 1 6 6 1 1 1 2 3 3 2 2 3 4 3 1 2 2 1 2 2 0 3 4 4 7 9 7 8 12 15 20 23 21 19 18 19 20 20 24 29 31 32 33 32 30 30 29 31 32 33 34 34 31 30 30 30 29 29 29 27 26 25 23 21 19 17 15 16 15 12 10 8 8 8 9 9 10 9
3 1 4 6 4 1 1 1 2 2 4 2 1 2 1 2 2 2 0 1 4 4 3 1 0 3 4 1 3 3 3 4 5 7 6 9 13 15 17 19 21 22 22 21 20 20 21 21 22 24 25 25 26 27 28 29 30 31 32 31 30 30 30 30 28 27 26 26 25 24 22 21 19 16 16 16 15 12 10 8 8 9 9 9 9 8
1 1 3 4 4 2 3 3 5 8 5 4 3 1 1 3 3 3 1 2 2 4 4 4 2 4 4 0 3 4 3 3 6 8 7 9 12 13 14 17 20 22 22 20 19 19 18 17 19 20 19 19 21 22 24 27 28 28 30 29 29 29 28 27 26 25 24 23 22 22 22 21 19 17 16 15 14 12 11 9 8 9 8 8 8 7
2 2 2 2 3 2 4 3 7 9 7 7 4 3 1 2 3 5 4 2 1 3 2 4 3 1 3 2 3 4 5 7 10 12 12 14 15 12 9 12 16 17 16 15 14 14 16 19 22 21 18 18 20 20 21 24 25 25 26 26 25 24 22 23 23 23 22 21 22 22 21 18 18 18 16 15 13 13 12 10 8 8 8 7 8 8
1 3 2 2 3 3 2 2 8 8 6 6 4 4 3 1 1 5 5 3 3 2 2 3 2 1 1 2 3 2 6 11 13 13 16 17 19 18 14 12 16 16 15 15 14 13 16 19 19 17 14 13 17 18 20 22 21 18 17 17 17 17 18 19 21 21 21 20 22 23 19 16 16 17 16 15 15 14 12 10 8 8 8 8 9 9
1 1 1 2 2 3 3 1 4 6 5 3 2 4 4 5 3 1 1 3 3 4 5 5 2 2 2 3 4 3 5 11 12 13 18 19 20 22 19 17 18 19 17 17 15 14 16 16 15 14 13 12 13 13 14 16 15 12 9 9 12 13 15 17 17 18 18 18 19 19 18 16 14 15 17 16 14 14 12 10 8 8 8 9 10 9
1 2 3 3 3 3 2 4 2 1 2 2 3 5 7 9 8 2 2 4 2 3 3 6 4 2 3 5 5 3 6 10 10 14 21 22 23 24 24 23 24 24 23 21 20 19 19 18 17 16 14 13 12 10 10 10 10 10 8 8 10 10 9 10 12 14 16 17 18 17 16 15 15 17 18 15 14 14 12 10 8 8 9 10 10 10
3 2 2 5 5 4 5 5 3 3 4 1 1 6 8 7 7 5 3 3 2 2 3 2 6 7 6 7 6 4 6 8 7 13 20 23 25 28 28 28 28 28 28 26 24 22 20 18 16 15 15 13 12 11 11 10 10 11 10 9 10 8 6 8 11 13 14 16 16 15 15 15 15 17 17 16 16 15 12 10 8 9 9 11 11 12
4 3 3 2 2 3 4 3 1 3 6 5 3 4 6 6 8 8 4 2 2 4 2 3 9 11 8 7 7 6 7 7 6 12 21 23 25 29 30 30 30 30 29 27 27 25 23 21 18 16 16 15 14 14 13 13 13 13 12 11 10 9 8 9 11 11 12 13 14 15 16 15 15 17 18 18 17 15 14 13 10 10 11 12 13 13
4 2 4 3 2 4 1 2 3 4 5 5 5 5 5 6 8 8 2 2 1 3 4 8 10 9 8 7 6 6 8 10 11 17 24 26 26 29 31 31 30 30 30 29 28 27 27 26 23 20 18 16 16 15 15 15 15 13 12 12 10 9 9 10 10 10 9 10 12 14 15 15 16 18 19 18 16 15 16 15 12 11 13 13 14 14
3 2 3 3 2 6 7 5 5 5 6 8 7 6 5 5 7 8 5 4 5 3 5 11 9 5 4 5 6 8 12 15 17 21 26 27 26 28 31 31 29 30 31 32 31 30 30 29 27 25 22 19 17 16 15 15 14 12 12 11 10 9 9 8 10 10 9 10 11 11 12 14 16 18 18 17 15 15 15 15 14 15 17 16 15 14
2 1 2 2 3 5 8 8 7 5 6 8 9 9 9 6 5 7 6 6 7 6 6 10 9 4 4 7 10 14 18 19 18 20 22 23 25 29 31 30 30 30 31 32 34 33 32 31 30 28 26 25 23 20 18 16 15 16 16 14 14 12 11 10 12 12 11 11 11 10 11 11 12 13 13 12 12 14 15 15 16 18 19 17 15 14
1 1 1 3 3 2 5 7 6 3 5 8 9 10 10 6 1 3 2 3 6 7 7 8 6 3 3 9 14 15 17 19 18 19 21 21 24 30 33 31 31 31 30 32 34 35 35 34 33 31 30 29 26 25 22 19 18 18 19 18 17 16 14 14 15 15 14 13 11 9 9 10 10 9 8 7 9 11 13 14 17 21 21 17 14 13
2 3 2 2 2 1 5 5 4 2 3 4 5 6 7 5 2 2 4 3 4 7 7 4 4 3 4 9 13 12 12 15 16 18 20 21 23 29 31 32 32 32 32 32 32 33 33 34 34 33 32 30 29 29 28 26 25 25 24 24 23 22 20 19 19 17 16 16 15 13 13 12 12 12 10 7 6 6 6 8 12 15 16 16 14 12
2 4 3 2 2 0 4 4 4 2 2 1 2 4 6 5 1 6 6 6 6 4 6 6 6 6 6 8 12 11 11 13 15 16 18 21 25 28 30 31 31 30 29 28 29 29 29 29 30 31 30 29 29 30 30 30 30 31 29 28 28 27 25 24 23 22 21 21 20 19 18 17 15 14 13 10 8 7 7 7 7 6 7 10 13 12
4 4 2 2 3 1 1 3 3 0 1 1 2 5 6 4 4 9 8 8 9 5 9 12 9 8 10 12 17 21 20 17 18 17 16 19 24 27 29 30 29 27 26 24 24 24 23 22 22 24 26 25 24 25 27 27 27 28 28 27 26 26 25 24 23 22 22 21 20 19 18 17 16 15 14 12 10 9 8 7 7 6 6 6 8 9
4 3 2 2 2 2 2 3 2 2 1 2 4 6 7 6 5 7 7 9 10 6 7 12 9 9 15 20 23 27 26 23 22 20 18 19 22 25 27 27 25 25 24 22 20 19 18 17 16 16 18 18 17 19 22 22 21 22 22 22 22 22 21 20 20 19 17 16 15 14 13 13 12 11 11 11 10 9 8 8 7 7 7 7 7 7
4 4 3 2 1 2 3 2 2 1 2 4 4 3 2 2 3 2 3 4 9 5 8 13 10 11 16 20 26 31 30 25 19 14 14 18 19 20 23 22 21 21 20 19 18 16 15 14 13 12 11 10 10 12 14 15 16 16 17 16 16 16 15 15 14 13 11 10 9 9 8 7 6 6 5 6 6 6 6 6 5 5 6 6 6 7
5 3 3 2 1 2 3 3 2 1 1 2 3 4 2 3 4 1 3 2 7 5 11 14 12 13 16 18 24 27 22 16 8 4 10 16 17 18 20 20 19 19 18 17 16 14 14 12 11 10 9 7 6 7 7 7 8 10 11 10 9 9 9 9 7 5 4 4 4 4 4 5 4 5 5 6 7 7 7 7 7 7 7 7 7 8
8 4 3 4 2 2 3 2 2 1 2 3 5 7 6 5 5 0 3 1 3 6 13 15 12 13 17 19 20 16 9 7 2 5 12 17 18 19 19 18 18 17 16 15 14 12 12 11 10 9 8 6 6 5 4 3 2 4 4 3 2 2 2 2 1 2 3 3 3 4 4 5 6 7 8 8 9 10 12 12 13 13 12 12 13 13
8 5 4 4 3 2 3 2 1 1 1 2 5 10 13 10 3 2 1 2 3 10 15 17 15 14 16 16 12 5 3 6 9 12 17 21 20 19 18 17 16 15 15 14 13 11 11 9 9 8 7 7 6 5 4 3 2 1 1 1 3 3 4 4 4 5 6 7 8 8 9 10 10 11 11 12 13 13 14 16 17 18 18 18 18 19
4 3 3 3 3 3 3 2 1 1 2 4 9 13 12 7 2 3 2 3 7 14 17 18 18 15 14 13 9 7 10 18 23 22 22 21 18 17 16 14 14 14 13 12 11 10 9 9 8 8 7 6 5 3 3 2 2 3 4 4 4 5 5 5 6 7 8 9 10 11 12 12 13 13 13 14 15 15 16 17 18 20 21 23 23 24
2 2 3 2 2 2 3 2 1 0 3 9 13 11 8 5 2 1 2 2 9 14 14 16 17 15 14 17 22 24 24 26 27 24 21 20 19 17 14 12 12 12 11 9 9 8 7 6 6 7 6 5 3 2 1 2 3 3 4 5 5 6 7 8 9 10 11 12 13 14 15 15 15 16 16 17 17 17 17 18 18 19 20 22 23 24
1 2 2 2 2 2 2 3 2 2 6 15 12 6 6 4 3 4 10 12 14 16 15 16 18 21 23 26 29 30 28 25 24 22 21 20 18 15 12 10 11 12 10 8 6 5 5 4 3 4 5 4 3 2 1 1 2 3 4 5 6 7 9 10 11 12 13 14 15 16 16 17 17 17 17 18 19 19 19 19 19 19 19 19 20 21
2 1 1 0 2 1 2 2 1 2 6 14 9 4 4 5 8 13 17 18 17 18 20 21 20 24 29 31 30 29 28 26 24 22 20 18 15 13 12 10 9 9 8 6 5 3 3 1 2 5 7 6 5 5 4 2 1 2 4 5 6 8 10 11 13 14 15 15 16 17 18 18 18 18 19 19 19 19 20 20 20 20 19 19 19 19
2 4 6 3 2 3 4 3 4 6 10 17 18 15 14 16 18 21 24 23 20 20 23 25 23 24 28 31 30 27 26 23 20 17 15 14 12 11 10 8 7 6 5 5 4 3 3 3 4 7 8 6 4 3 3 2 1 1 2 4 6 8 10 12 14 16 17 19 20 21 21 21 21 21 20 20 20 19 19 19 20 20 21 20 19 19
3 8 9 6 3 6 8 8 9 12 16 19 20 20 21 22 22 24 28 27 24 23 25 25 24 24 24 26 25 24 21 18 16 14 12 11 9 8 7 7 5 4 3 4 4 3 4 5 6 5 5 4 3 3 3 3 2 2 3 6 9 11 13 15 17 18 19 20 21 22 23 23 23 22 22 20 19 18 18 19 20 21 21 21 21 20
1 4 6 4 3 4 5 6 8 12 16 19 19 19 19 20 20 24 27 26 25 24 24 24 23 22 21 21 22 21 18 16 15 13 10 9 9 7 6 5 2 1 1 3 3 3 6 7 5 3 3 3 3 1 1 2 3 5 7 9 12 15 17 18 19 19 19 20 20 22 22 22 22 22 22 20 19 19 20 20 21 22 22 22 23 23
1 5 6 4 3 3 4 6 10 15 17 17 17 17 17 17 18 19 21 21 21 20 19 18 18 17 17 17 18 19 17 15 13 11 10 10 10 8 7 5 3 2 1 4 2 4 8 7 5 3 2 1 1 3 4 5 7 8 11 13 15 16 17 18 19 19 19 19 20 20 20 20 20 20 20 19 19 19 19 19 20 21 21 21 22 23
2 4 3 3 5 5 5 9 13 13 11 13 16 17 17 17 17 17 16 15 15 14 13 12 11 11 11 12 13 14 14 11 9 8 10 11 11 9 7 5 4 2 2 3 2 6 7 5 3 3 4 3 4 6 7 8 10 12 13 14 15 16 17 19 19 19 18 18 18 19 19 19 19 19 19 19 19 18 17 17 19 21 21 20 20 20
4 3 2 5 6 2 3 9 11 7 4 9 15 16 15 17 18 17 16 15 14 13 13 13 12 10 9 9 9 10 11 10 8 9 12 12 10 8 5 4 3 1 2 1 5 6 5 4 4 4 4 4 5 8 9 10 12 12 12 13 15 17 18 18 17 16 15 15 16 17 18 18 18 18 18 19 20 19 18 18 18 20 21 21 20 19
4 3 3 4 4 4 7 12 13 10 9 11 15 16 16 16 16 16 15 15 14 14 14 14 14 13 12 11 10 9 9 9 9 9 10 10 8 6 4 3 3 3 3 4 5 4 5 6 5 4 3 2 5 8 9 11 11 11 11 13 16 18 17 16 15 14 14 14 15 16 17 17 18 18 18 19 21 22 22 22 20 18 17 18 19 20
Wind_Direction
192 203 240 229 222 211 228 225 223 254 268 258 280 271 261 268 269 274 273 276 240 225 258 243 241 242 241 242 236 238 221 168 169 169 170 177 177 181 189 192 188 179 175 178 178 176 164 141 126 118 121 135 142 158 173 175 179 177 169 168 172 176 176 174 174 171 170 171 173 176 175 172 171 170 171 173 172 170 167 169 171 171 175 171 162 155
182 204 237 229 210 205 221 227 224 242 251 249 264 273 277 272 271 274 274 283 244 201 259 251 240 246 241 236 236 232 211 165 165 158 167 178 180 187 191 190 179 157 150 151 148 144 130 116 114 113 124 141 157 174 175 176 181 178 173 171 171 175 176 176 177 174 173 174 175 174 172 169 169 168 169 167 161 156 155 157 159 161 163 156 145 139
220 233 241 228 211 207 226 233 223 232 241 245 247 260 270 265 278 274 272 310 267 202 260 261 241 243 241 231 233 226 206 189 173 163 171 180 181 188 192 185 157 137 135 132 131 139 144 144 142 140 141 147 170 177 169 174 181 181 178 173 171 174 175 177 178 177 176 173 170 171 170 167 165 161 160 160 154 150 154 154 147 147 149 142 132 127
236 252 235 220 213 204 232 243 234 245 247 240 237 246 259 256 267 265 277 347 299 245 246 261 246 240 246 239 241 233 223 204 177 172 177 180 181 187 191 173 144 139 136 126 129 141 147 149 148 144 140 139 155 171 171 176 181 184 182 175 172 173 174 177 176 177 176 170 165 167 167 164 160 156 157 163 165 167 172 164 154 153 148 141 136 135
235 252 222 189 210 205 225 244 235 240 255 248 230 225 248 253 245 246 288 330 317 308 262 255 276 256 254 240 247 250 242 203 171 173 176 179 182 181 170 149 144 146 139 134 140 147 144 144 143 138 139 142 150 166 176 180 182 185 183 176 173 173 175 176 174 173 174 170 165 162 162 163 161 162 167 175 179 187 196 183 178 178 170 159 155 148
241 251 227 192 218 209 217 242 227 203 234 265 237 220 234 248 249 255 301 326 347 318 283 84 45 278 295 235 233 260 327 122 158 163 168 176 175 156 139 141 144 139 137 144 149 150 149 144 140 139 146 153 158 166 175 181 184 184 180 176 174 176 177 175 172 173 174 173 168 164 166 169 169 170 177 187 189 187 188 184 184 186 183 180 187 181
242 244 215 206 221 210 216 241 230 185 193 258 241 217 223 233 238 247 284 295 306 275 274 75 122 256 320 294 234 242 70 101 145 152 160 167 157 137 138 142 140 136 139 146 147 151 152 147 145 147 152 159 164 168 175 180 183 181 178 176 177 180 180 177 175 176 177 175 171 171 174 175 174 173 176 183 183 176 174 175 178 181 186 198 225 275
237 234 216 215 214 205 218 241 229 180 172 245 235 207 214 213 216 229 251 240 230 272 301 5 125 164 302 276 252 225 75 84 131 142 157 158 140 131 137 138 140 143 145 147 147 147 146 147 150 151 156 163 165 169 174 177 179 179 178 179 182 182 181 181 181 181 181 178 174 176 178 177 175 174 170 169 169 166 163 164 168 176 192 211 234 269
233 217 217 212 207 205 213 231 228 181 176 239 224 202 218 215 207 225 253 254 260 311 305 305 94 99 278 274 305 28 58 52 139 146 157 143 126 128 133 134 137 141 145 151 151 146 145 149 151 147 153 163 166 171 175 177 178 179 179 182 184 182 181 181 183 184 184 181 179 180 180 177 176 177 171 165 163 160 156 158 167 178 194 213 228 246
252 239 239 210 199 213 214 228 226 197 202 233 212 201 227 229 187 214 242 255 359 71 260 275 305 102 272 287 322 23 56 19 124 116 120 117 121 130 133 135 138 141 147 154 155 153 152 151 150 148 152 160 166 171 171 173 181 183 182 184 184 182 181 181 183 187 187 184 185 186 183 179 178 179 175 167 163 161 161 168 174 179 191 206 219 223
263 269 269 235 208 212 210 224 217 203 205 190 178 203 278 337 29 28 251 115 82 249 252 255 219 137 273 293 300 308 282 160 125 104 102 112 123 132 135 140 144 145 150 155 156 156 153 151 153 155 158 164 169 174 173 173 181 183 181 184 185 183 183 184 185 188 188 187 189 191 188 185 181 179 177 170 166 167 172 179 180 178 186 201 217 217
281 274 271 244 232 214 191 217 214 196 194 152 136 128 8 334 16 25 343 72 128 251 259 242 171 120 209 271 278 278 278 198 145 135 133 128 130 136 139 143 144 147 151 153 155 156 154 156 161 164 167 171 175 179 178 175 179 181 181 185 186 185 187 187 186 189 190 190 194 195 192 190 186 181 179 174 170 174 180 183 179 178 191 211 220 220
296 260 255 252 244 214 163 213 274 360 63 121 93 83 98 294 347 352 301 106 188 243 256 231 132 104 221 245 295 303 305 299 137 140 142 141 140 142 143 143 144 147 149 151 155 158 160 162 166 170 170 173 178 179 177 175 178 181 184 188 188 187 188 188 187 189 192 194 198 198 195 194 191 184 180 178 177 179 184 184 178 182 198 211 219 226
295 289 286 264 249 208 150 159 247 308 23 134 132 122 149 203 129 275 275 289 244 241 259 254 133 140 260 316 336 329 335 68 114 121 127 134 141 145 145 145 146 147 149 153 157 161 163 166 169 172 172 175 180 180 177 177 180 184 188 190 190 189 189 189 189 190 192 195 196 197 197 196 193 186 182 185 186 182 182 180 177 187 198 198 203 219
226 294 280 213 230 193 165 171 177 180 174 187 177 140 156 171 152 206 225 209 250 246 276 301 131 178 133 1 334 352 32 69 106 115 117 123 131 134 137 145 149 153 156 159 163 164 165 169 172 174 175 178 182 183 181 180 182 187 190 190 190 191 191 190 190 191 191 192 194 196 198 198 195 191 187 190 190 183 180 179 177 189 204 212 214 208
188 249 252 239 227 182 184 206 169 140 187 245 154 106 183 196 154 165 193 168 195 207 349 347 120 187 123 47 347 26 60 56 83 107 114 120 125 125 132 149 156 160 161 163 167 167 167 172 177 179 179 181 185 185 183 183 186 189 190 190 191 193 193 191 191 192 191 192 195 198 199 198 198 196 192 192 188 182 179 180 183 200 220 233 244 245
185 251 273 285 271 204 201 207 165 149 184 262 79 159 226 187 134 128 248 44 83 134 283 26 94 19 44 40 355 13 64 57 56 87 104 116 123 126 134 152 163 163 161 165 170 170 171 175 179 182 184 186 187 185 184 186 189 191 191 192 192 194 194 192 192 193 192 192 196 199 199 197 196 196 194 191 188 184 182 181 194 216 224 235 249 253
206 252 284 290 294 266 222 212 205 172 168 143 174 219 234 63 95 110 140 15 40 157 267 2 97 48 20 48 335 344 54 67 56 69 91 109 120 125 134 150 165 168 165 168 171 171 174 178 181 185 187 189 190 187 187 189 191 193 193 193 194 195 194 194 195 195 194 194 197 200 198 192 194 201 200 196 193 190 184 184 202 218 225 234 241 249
213 241 287 272 253 283 257 202 301 292 213 176 191 176 103 128 240 90 147 155 99 157 291 338 58 73 56 140 304 322 26 77 87 91 94 110 118 120 129 144 160 168 166 168 170 172 176 180 183 186 188 189 190 190 191 194 195 195 195 196 198 197 196 196 196 197 196 196 198 199 194 189 195 205 204 199 197 192 185 192 210 221 228 235 241 253
302 220 283 290 243 290 26 46 339 309 311 327 212 266 90 139 174 161 166 158 141 144 181 329 360 7 247 220 259 337 354 63 104 114 116 122 122 119 127 142 153 158 160 163 169 177 180 180 183 187 189 189 189 191 196 200 201 198 197 198 198 196 196 197 198 200 199 198 198 196 190 188 196 204 202 197 196 192 190 200 219 228 234 241 249 254
6 151 246 296 311 62 51 323 77 31 327 5 115 268 352 100 130 152 158 109 127 138 151 159 313 274 259 230 99 71 20 30 87 105 103 110 120 123 130 140 147 151 156 162 171 179 183 182 181 184 188 189 190 195 201 205 205 201 199 199 197 196 198 198 199 201 201 200 199 197 192 191 196 199 195 194 195 194 195 204 222 232 238 246 250 236
9 130 204 284 323 88 187 242 85 86 73 76 98 291 226 144 132 136 235 308 88 126 154 157 173 260 278 348 110 109 84 52 75 88 80 77 97 119 135 144 150 155 158 159 166 170 172 178 182 181 185 192 198 202 204 205 204 201 200 198 197 199 201 201 201 202 202 200 198 199 197 195 196 196 194 194 195 197 199 204 217 226 233 240 231 199
155 105 102 256 256 180 182 161 89 87 83 76 62 1 25 115 110 132 186 236 61 86 117 119 123 245 304 20 84 97 106 102 95 101 94 72 71 84 106 125 136 148 150 145 149 149 149 161 173 177 184 196 198 197 197 198 199 200 200 199 199 200 200 200 201 201 200 197 195 198 197 191 189 190 193 199 203 202 201 205 212 215 217 216 194 167
90 81 39 303 295 311 256 113 68 51 53 65 29 359 23 346 177 159 179 171 132 134 103 84 90 229 280 63 97 103 97 92 85 93 96 82 76 78 74 84 111 128 134 134 137 134 135 146 155 159 165 174 179 183 184 188 192 191 191 196 196 195 196 197 197 197 197 196 198 201 201 196 190 188 192 202 208 208 206 208 211 206 202 194 174 154
338 105 74 52 4 337 303 281 42 27 36 66 346 335 9 8 3 167 162 84 125 195 155 130 173 229 176 123 133 148 101 80 66 77 92 93 92 93 89 91 106 116 118 120 120 112 113 122 130 141 149 150 155 165 171 180 186 178 175 192 190 185 189 190 192 196 198 201 207 210 210 209 204 200 201 202 203 206 208 209 212 208 198 186 170 156
149 141 109 110 160 182 198 222 219 65 43 34 346 353 19 23 15 10 141 95 137 226 120 123 176 187 137 130 132 140 111 97 90 92 96 95 95 96 94 95 101 105 105 106 105 102 103 108 116 130 143 146 147 153 161 171 175 166 168 189 192 192 194 192 198 203 201 205 212 215 215 211 206 207 210 207 198 199 203 208 219 217 197 182 174 172
105 75 96 126 154 179 190 221 229 111 101 110 16 17 24 27 23 39 92 95 151 153 49 111 158 138 140 151 138 120 101 101 106 101 95 91 91 93 93 94 96 98 99 101 104 107 109 111 118 129 137 144 148 151 154 151 149 157 168 179 189 200 207 205 212 214 212 213 215 216 217 215 210 211 212 208 202 201 200 206 225 223 196 180 182 186
94 24 10 88 152 216 197 207 300 90 116 139 132 58 35 34 40 50 47 344 128 116 64 190 155 139 155 167 143 129 111 99 99 96 93 92 93 95 95 94 94 97 100 103 105 107 104 103 109 120 126 131 133 134 137 135 138 152 164 167 175 188 193 198 206 209 214 218 215 214 217 217 213 210 206 204 205 205 199 196 205 213 203 190 188 192
108 35 344 330 320 322 357 87 54 68 96 96 101 94 72 70 74 74 48 300 168 151 173 173 156 143 151 152 136 129 118 115 114 107 104 103 101 99 97 95 93 95 98 100 100 100 98 98 101 106 110 115 119 122 126 131 136 144 149 150 156 168 176 187 196 197 202 210 209 211 215 215 211 207 204 202 201 202 200 192 185 198 208 203 196 197
91 67 339 325 3 5 6 25 31 43 73 68 57 51 49 75 99 95 80 77 89 94 133 140 135 112 110 130 124 111 110 116 114 107 106 106 104 101 99 97 94 94 96 98 97 96 96 96 98 102 105 107 108 112 117 122 127 130 131 134 141 149 156 170 183 187 193 199 197 198 204 208 208 205 203 200 194 196 203 197 188 198 209 208 202 201
38 87 316 356 54 13 1 10 16 37 83 69 42 24 14 21 81 98 95 87 75 61 89 115 114 83 75 95 97 97 101 104 102 101 104 106 107 106 102 100 99 97 96 95 95 96 97 96 98 100 101 100 100 105 109 114 118 118 116 118 124 130 138 154 163 164 163 164 167 176 183 188 195 200 202 202 200 204 208 206 202 205 205 202 202 203
87 121 314 46 72 356 345 10 25 72 94 59 28 9 359 352 83 109 96 111 113 113 115 114 113 112 103 94 85 81 88 91 91 99 107 109 112 110 106 104 102 100 97 96 97 99 99 98 98 99 99 99 101 104 106 110 115 115 112 111 111 115 123 136 143 141 137 131 130 140 150 153 159 165 170 182 196 207 212 212 212 212 206 198 195 201
140 130 130 84 87 331 326 359 33 90 94 41 360 343 331 299 253 61 36 40 99 127 139 139 118 109 118 109 96 80 78 86 91 101 111 117 116 112 109 108 107 104 102 100 100 101 101 100 99 98 98 98 100 103 105 109 110 109 109 107 105 107 112 117 119 122 124 120 112 109 115 123 126 122 119 126 147 175 192 200 206 211 211 204 199 202
58 111 123 113 119 215 314 357 39 80 140 181 308 331 320 293 123 88 64 23 18 73 116 114 103 92 87 99 103 97 86 84 90 99 111 118 115 110 108 107 107 107 106 104 101 99 98 98 98 99 99 96 95 98 103 107 108 109 111 111 110 110 110 110 111 112 113 114 110 106 107 112 114 113 111 110 117 140 154 159 170 182 193 201 210 217
69 86 99 90 106 139 347 35 54 121 188 193 323 343 336 327 82 91 76 36 19 43 98 103 105 99 90 91 97 100 99 95 93 95 97 102 105 105 104 103 103 104 105 106 107 103 98 96 95 97 100 99 97 98 102 105 108 113 117 116 114 114 113 113 113 112 112 114 115 112 110 112 115 117 118 117 120 133 143 147 157 161 158 173 202 220
112 113 110 87 82 109 84 65 111 198 298 351 342 351 356 357 27 57 54 26 1 355 102 111 111 105 105 107 106 104 102 98 90 87 89 93 96 99 99 99 100 100 100 102 107 108 108 109 106 100 99 101 103 106 108 108 110 117 120 118 117 118 119 120 119 117 119 122 122 122 122 122 124 127 127 129 130 131 134 139 147 160 169 176 189 198
110 119 108 78 66 111 105 82 111 127 360 3 353 354 32 6 327 15 73 9 344 356 119 125 120 117 119 121 118 113 105 93 77 71 85 94 94 95 95 94 96 97 96 96 98 99 101 106 112 110 106 109 113 115 118 118 118 122 125 125 123 123 127 133 128 119 120 127 130 134 142 145 149 154 157 161 163 160 158 157 158 169 181 193 204 207
75 113 130 122 70 94 108 107 95 79 302 286 289 284 208 197 236 187 108 354 345 35 124 135 129 131 134 132 132 126 111 91 74 81 106 103 99 98 96 92 92 94 94 94 94 94 95 98 106 109 110 116 115 108 117 129 130 130 128 122 118 119 126 135 131 110 104 122 136 156 177 192 208 219 225 227 227 228 228 224 225 230 230 233 233 228
48 48 85 93 65 63 94 108 118 145 225 247 271 289 303 288 262 107 77 331 352 72 119 129 128 138 144 147 151 145 114 85 126 172 136 118 108 106 104 102 102 101 100 100 98 98 100 99 102 108 114 120 111 94 92 100 116 137 136 115 83 80 93 98 58 343 336 323 307 292 274 264 264 264 262 258 253 250 248 247 246 248 248 249 248 244
36 22 39 65 65 74 85 83 99 157 267 287 289 300 314 318 306 119 110 245 137 118 125 128 128 139 153 160 163 153 108 132 155 153 133 118 110 111 111 108 109 108 105 106 106 106 107 105 104 109 111 110 101 89 85 73 37 31 26 339 332 338 354 1 345 331 322 313 305 302 299 295 291 289 285 279 273 267 262 259 257 256 256 256 256 254
28 19 42 76 71 64 88 99 90 265 294 315 309 312 326 346 64 139 229 240 152 137 135 133 134 144 160 163 143 104 114 131 135 133 125 116 111 110 106 101 102 103 102 103 105 104 103 101 99 96 93 92 87 77 74 54 2 7 5 346 333 335 340 336 323 311 303 299 298 297 297 298 299 299 297 292 287 282 277 272 269 266 265 264 263 261
21 11 23 62 43 39 86 90 73 182 336 331 319 326 11 54 165 189 18 116 147 147 141 136 138 140 138 128 117 116 122 128 129 128 125 120 116 110 104 101 102 103 101 99 98 93 86 83 81 75 73 77 76 59 11 313 314 339 343 329 326 326 316 305 298 293 289 289 290 292 295 297 299 298 297 295 293 291 288 286 282 279 276 273 271 269
77 62 35 32 21 43 72 47 73 188 328 339 329 330 23 46 181 119 72 83 112 124 120 119 127 132 127 120 118 122 128 129 128 128 127 124 122 118 117 119 119 120 116 108 105 101 91 80 49 40 50 66 74 72 51 316 303 295 289 295 311 318 310 304 301 299 297 296 296 297 299 299 299 298 296 295 292 290 289 288 287 287 286 283 279 276
16 77 122 295 344 67 99 34 77 195 349 13 40 93 52 71 120 111 92 86 93 104 109 109 114 124 127 124 123 125 127 127 127 129 128 126 124 122 120 120 123 125 120 115 123 132 128 116 50 63 80 89 90 89 84 62 331 278 274 289 306 310 309 311 311 310 310 309 307 306 305 303 302 302 300 299 296 293 290 289 288 289 288 287 284 281
10 107 110 92 33 68 104 116 117 103 67 63 77 91 91 94 104 108 104 95 89 97 107 108 110 117 122 123 123 122 123 124 126 127 125 122 120 120 122 124 127 125 115 110 116 140 167 146 103 96 99 95 88 101 114 131 240 263 282 300 305 304 303 306 306 307 309 309 309 308 305 303 302 300 299 298 295 293 293 293 291 290 289 287 284 281
101 103 95 93 90 75 82 103 108 92 83 83 89 93 95 96 99 102 101 96 92 96 102 106 109 113 118 121 121 119 119 120 120 118 117 118 120 126 132 133 128 123 110 88 87 128 154 134 117 115 112 97 88 112 142 174 211 272 302 305 303 302 302 302 304 306 308 307 306 305 301 299 297 294 293 292 290 290 294 295 295 294 292 289 285 281
14 79 80 91 119 94 88 112 114 102 99 99 99 102 104 104 105 105 101 98 99 101 102 105 108 111 115 118 117 115 114 116 118 119 123 129 133 141 149 145 137 138 81 37 43 142 155 141 139 160 148 119 111 113 217 262 292 307 308 306 304 304 305 307 307 308 308 306 306 304 302 299 296 294 292 291 289 290 293 295 295 294 292 289 284 280
42 94 92 84 77 76 109 129 120 114 114 112 109 112 114 114 117 115 110 110 111 110 108 109 111 114 117 118 118 117 117 118 120 120 128 139 147 155 161 168 198 235 325 2 21 163 166 160 159 183 206 195 230 281 289 296 305 306 303 303 304 305 308 309 308 308 308 307 307 306 305 302 300 299 298 297 296 297 300 302 300 298 296 294 289 283
95 101 96 100 94 73 90 118 116 107 106 113 117 118 117 118 119 118 119 124 125 121 120 121 123 125 124 122 124 126 125 124 125 126 133 143 151 157 164 182 205 233 339 357 142 164 171 170 174 224 249 256 273 285 291 299 302 303 305 307 311 314 315 314 312 311 309 307 305 304 303 301 300 301 300 299 299 300 302 305 306 303 301 298 294 288
74 104 85 102 118 146 180 150 135 119 125 136 129 124 121 119 118 118 122 124 122 122 127 130 132 131 125 121 128 133 129 121 118 128 136 139 143 150 161 186 204 257 330 184 164 168 178 173 179 222 239 258 280 282 289 299 301 301 308 316 320 321 321 320 318 313 308 307 306 305 305 305 304 305 306 306 306 304 302 302 304 303 302 300 295 289
73 164 164 128 140 178 173 161 146 132 139 145 135 129 129 126 122 123 125 124 121 123 127 131 132 129 126 130 138 143 140 127 116 125 133 132 133 147 170 202 232 276 262 204 186 188 186 173 176 198 213 261 284 283 290 299 301 303 315 327 329 327 326 325 319 309 305 309 312 310 309 311 313 315 317 316 316 315 312 310 306 302 302 301 296 290